contact:dominique.lefevre@mio.osupytheas.fr, maurice.libes@osupytheas.fr, didier.mallarino@osupytheas.fr
Project:EMSO http://www.emso-fr.org/EMSO-France
Depth: 2436.0 m
Title:EMSO Ligure Ouest : Data MII capteur CSTAR
DateTime,Latitude,Longitude,Instrument_Serial,Reference_Counts,Signal_Counts,Corrected_Signal_raw_counts,Calculated_Beam_c_inverse_meters,Internal_thermistor_counts
DateTime,Latitude,Longitude,Instrument_Serial,Reference_Counts,Signal_Counts,Corrected_Signal_raw_counts,Calculated_Beam_c_inverse_meters,Internal_thermistor_counts
2021-09-15T00:02:03,42.805,6.029,CST-1368DR,5222,7116,14594,0.271,551
2021-09-15T00:05:04,42.805,6.029,CST-1368DR,5222,7116,14595,0.270,551
2021-09-15T00:08:06,42.805,6.029,CST-1368DR,5222,7116,14594,0.271,551
2021-09-15T00:11:08,42.805,6.029,CST-1368DR,5222,7116,14594,0.271,551
2021-09-15T00:14:09,42.805,6.029,CST-1368DR,5222,7116,14594,0.271,551
2021-09-15T00:17:11,42.805,6.029,CST-1368DR,5222,7116,14595,0.270,551
2021-09-15T00:20:12,42.805,6.029,CST-1368DR,5222,7116,14594,0.271,551
2021-09-15T00:23:14,42.805,6.029,CST-1368DR,5222,7115,14593,0.271,551
2021-09-15T00:26:15,42.805,6.029,CST-1368DR,5222,7116,14594,0.271,551
2021-09-15T00:29:17,42.805,6.029,CST-1368DR,5222,7115,14593,0.271,551
2021-09-15T00:32:19,42.805,6.029,CST-1368DR,5222,7115,14593,0.271,551
2021-09-15T00:35:20,42.805,6.029,CST-1368DR,5222,7115,14593,0.271,551
2021-09-15T00:38:22,42.805,6.029,CST-1368DR,5222,7116,14594,0.271,551
2021-09-15T00:41:23,42.805,6.029,CST-1368DR,5222,7115,14593,0.271,551
2021-09-15T00:44:25,42.805,6.029,CST-1368DR,5222,7115,14593,0.271,551
2021-09-15T00:47:27,42.805,6.029,CST-1368DR,5222,7115,14592,0.271,551
2021-09-15T00:50:28,42.805,6.029,CST-1368DR,5222,7115,14593,0.271,551
2021-09-15T00:53:30,42.805,6.029,CST-1368DR,5222,7116,14594,0.271,551
2021-09-15T00:56:31,42.805,6.029,CST-1368DR,5222,7115,14593,0.271,551
2021-09-15T00:59:33,42.805,6.029,CST-1368DR,5222,7116,14594,0.271,551
2021-09-15T01:02:34,42.805,6.029,CST-1368DR,5222,7115,14593,0.271,551
2021-09-15T01:05:36,42.805,6.029,CST-1368DR,5222,7115,14592,0.271,551
2021-09-15T01:08:38,42.805,6.029,CST-1368DR,5222,7115,14593,0.271,551
2021-09-15T01:11:39,42.805,6.029,CST-1368DR,5222,7114,14591,0.272,551
2021-09-15T01:14:41,42.805,6.029,CST-1368DR,5222,7115,14592,0.271,551
2021-09-15T01:17:42,42.805,6.029,CST-1368DR,5222,7115,14592,0.271,551
2021-09-15T01:20:44,42.805,6.029,CST-1368DR,5222,7115,14593,0.271,551
2021-09-15T01:23:46,42.805,6.029,CST-1368DR,5222,7115,14593,0.271,551
2021-09-15T01:26:47,42.805,6.029,CST-1368DR,5222,7115,14592,0.271,551
2021-09-15T01:29:49,42.805,6.029,CST-1368DR,5222,7115,14593,0.271,551
2021-09-15T01:32:50,42.805,6.029,CST-1368DR,5222,7115,14593,0.271,551
2021-09-15T01:35:52,42.805,6.029,CST-1368DR,5222,7115,14593,0.271,551
2021-09-15T01:38:53,42.805,6.029,CST-1368DR,5222,7115,14593,0.271,551
2021-09-15T01:41:55,42.805,6.029,CST-1368DR,5222,7115,14592,0.271,551
2021-09-15T01:44:57,42.805,6.029,CST-1368DR,5222,7115,14592,0.271,551
2021-09-15T01:47:58,42.805,6.029,CST-1368DR,5222,7114,14590,0.272,551
2021-09-15T01:51:00,42.805,6.029,CST-1368DR,5222,7115,14593,0.271,551
2021-09-15T01:54:01,42.805,6.029,CST-1368DR,5222,7115,14593,0.271,551
2021-09-15T01:57:03,42.805,6.029,CST-1368DR,5222,7115,14593,0.271,551
2021-09-15T02:00:04,42.805,6.029,CST-1368DR,5222,7115,14593,0.271,551
2021-09-15T02:03:06,42.805,6.029,CST-1368DR,5222,7114,14591,0.272,551
2021-09-15T02:06:08,42.805,6.029,CST-1368DR,5222,7113,14589,0.272,551
2021-09-15T02:09:09,42.805,6.029,CST-1368DR,5222,7115,14592,0.271,551
2021-09-15T02:12:11,42.805,6.029,CST-1368DR,5222,7115,14592,0.271,551
2021-09-15T02:15:12,42.805,6.029,CST-1368DR,5222,7115,14593,0.271,551
2021-09-15T02:18:14,42.805,6.029,CST-1368DR,5222,7115,14593,0.271,551
2021-09-15T02:21:16,42.805,6.029,CST-1368DR,5222,7115,14593,0.271,551
2021-09-15T02:24:17,42.805,6.029,CST-1368DR,5222,7114,14591,0.272,551
2021-09-15T02:27:19,42.805,6.029,CST-1368DR,5222,7115,14593,0.271,551
2021-09-15T02:30:20,42.805,6.029,CST-1368DR,5222,7115,14593,0.271,551
2021-09-15T02:33:22,42.805,6.029,CST-1368DR,5222,7115,14592,0.271,551
2021-09-15T02:36:23,42.805,6.029,CST-1368DR,5222,7115,14592,0.271,551
2021-09-15T02:39:25,42.805,6.029,CST-1368DR,5222,7114,14591,0.272,551
2021-09-15T02:42:27,42.805,6.029,CST-1368DR,5222,7115,14592,0.271,551
2021-09-15T02:45:28,42.805,6.029,CST-1368DR,5222,7115,14593,0.271,551
2021-09-15T02:48:30,42.805,6.029,CST-1368DR,5222,7115,14592,0.271,551
2021-09-15T02:51:31,42.805,6.029,CST-1368DR,5222,7115,14592,0.271,551
2021-09-15T02:54:33,42.805,6.029,CST-1368DR,5222,7115,14592,0.271,551
2021-09-15T02:57:34,42.805,6.029,CST-1368DR,5222,7115,14592,0.271,551
2021-09-15T03:00:36,42.805,6.029,CST-1368DR,5222,7115,14593,0.271,551
2021-09-15T03:03:38,42.805,6.029,CST-1368DR,5222,7115,14593,0.271,551
2021-09-15T03:06:39,42.805,6.029,CST-1368DR,5222,7115,14592,0.271,551
2021-09-15T03:09:41,42.805,6.029,CST-1368DR,5222,7115,14592,0.271,551
2021-09-15T03:12:42,42.805,6.029,CST-1368DR,5222,7115,14592,0.271,551
2021-09-15T03:15:44,42.805,6.029,CST-1368DR,5222,7114,14591,0.272,551
2021-09-15T03:18:46,42.805,6.029,CST-1368DR,5222,7114,14591,0.272,551
2021-09-15T03:21:47,42.805,6.029,CST-1368DR,5222,7115,14592,0.271,551
2021-09-15T03:24:49,42.805,6.029,CST-1368DR,5222,7115,14592,0.271,551
2021-09-15T03:27:50,42.805,6.029,CST-1368DR,5222,7115,14592,0.271,551
2021-09-15T03:30:52,42.805,6.029,CST-1368DR,5222,7115,14592,0.271,551
2021-09-15T03:33:53,42.805,6.029,CST-1368DR,5222,7115,14592,0.271,551
2021-09-15T03:36:55,42.805,6.029,CST-1368DR,5222,7114,14591,0.272,551
2021-09-15T03:39:57,42.805,6.029,CST-1368DR,5222,7115,14592,0.271,551
2021-09-15T03:42:58,42.805,6.029,CST-1368DR,5222,7115,14592,0.271,551
2021-09-15T03:46:00,42.805,6.029,CST-1368DR,5222,7115,14592,0.271,551
2021-09-15T03:49:01,42.805,6.029,CST-1368DR,5222,7115,14593,0.271,551
2021-09-15T03:52:03,42.805,6.029,CST-1368DR,5222,7115,14592,0.271,551
2021-09-15T03:55:04,42.805,6.029,CST-1368DR,5222,7115,14592,0.271,551
2021-09-15T03:58:06,42.805,6.029,CST-1368DR,5222,7115,14592,0.271,551
2021-09-15T04:01:08,42.805,6.029,CST-1368DR,5222,7115,14593,0.271,551
2021-09-15T04:04:09,42.805,6.029,CST-1368DR,5222,7113,14589,0.272,551
2021-09-15T04:07:11,42.805,6.029,CST-1368DR,5222,7115,14592,0.271,551
2021-09-15T04:10:12,42.805,6.029,CST-1368DR,5222,7115,14592,0.271,551
2021-09-15T04:13:14,42.805,6.029,CST-1368DR,5222,7115,14592,0.271,551
2021-09-15T04:16:16,42.805,6.029,CST-1368DR,5222,7115,14593,0.271,551
2021-09-15T04:19:17,42.805,6.029,CST-1368DR,5222,7115,14592,0.271,551
2021-09-15T04:22:19,42.805,6.029,CST-1368DR,5222,7114,14591,0.272,551
2021-09-15T04:25:20,42.805,6.029,CST-1368DR,5222,7114,14591,0.272,551
2021-09-15T04:28:22,42.805,6.029,CST-1368DR,5222,7115,14592,0.271,551
2021-09-15T04:31:23,42.805,6.029,CST-1368DR,5222,7115,14592,0.271,551
2021-09-15T04:34:25,42.805,6.029,CST-1368DR,5222,7114,14591,0.272,551
2021-09-15T04:37:27,42.805,6.029,CST-1368DR,5222,7114,14591,0.272,551
2021-09-15T04:40:28,42.805,6.029,CST-1368DR,5222,7114,14591,0.272,551
2021-09-15T04:43:30,42.805,6.029,CST-1368DR,5222,7114,14591,0.272,551
2021-09-15T04:46:31,42.805,6.029,CST-1368DR,5222,7113,14589,0.272,551
2021-09-15T04:49:33,42.805,6.029,CST-1368DR,5222,7113,14588,0.272,551
2021-09-15T04:52:35,42.805,6.029,CST-1368DR,5222,7113,14589,0.272,551
2021-09-15T04:55:36,42.805,6.029,CST-1368DR,5222,7114,14591,0.272,551
2021-09-15T04:58:38,42.805,6.029,CST-1368DR,5222,7114,14591,0.272,551
2021-09-15T05:01:39,42.805,6.029,CST-1368DR,5222,7114,14591,0.272,551
2021-09-15T05:04:41,42.805,6.029,CST-1368DR,5222,7115,14592,0.271,551
2021-09-15T05:07:42,42.805,6.029,CST-1368DR,5222,7115,14592,0.271,551
2021-09-15T05:10:44,42.805,6.029,CST-1368DR,5222,7114,14591,0.272,551
2021-09-15T05:13:46,42.805,6.029,CST-1368DR,5222,7115,14592,0.271,551
2021-09-15T05:16:47,42.805,6.029,CST-1368DR,5222,7114,14591,0.272,551
2021-09-15T05:19:49,42.805,6.029,CST-1368DR,5222,7114,14591,0.272,551
2021-09-15T05:22:50,42.805,6.029,CST-1368DR,5221,7114,14593,0.271,551
2021-09-15T05:25:52,42.805,6.029,CST-1368DR,5222,7115,14592,0.271,551
2021-09-15T05:28:54,42.805,6.029,CST-1368DR,5221,7115,14594,0.271,551
2021-09-15T05:31:55,42.805,6.029,CST-1368DR,5222,7114,14590,0.272,551
2021-09-15T05:34:57,42.805,6.029,CST-1368DR,5221,7114,14593,0.271,551
2021-09-15T05:37:58,42.805,6.029,CST-1368DR,5221,7114,14593,0.271,551
2021-09-15T05:41:00,42.805,6.029,CST-1368DR,5222,7115,14592,0.271,551
2021-09-15T05:44:01,42.805,6.029,CST-1368DR,5221,7115,14594,0.271,551
2021-09-15T05:47:03,42.805,6.029,CST-1368DR,5222,7114,14591,0.272,551
2021-09-15T05:50:05,42.805,6.029,CST-1368DR,5222,7115,14592,0.271,551
2021-09-15T05:53:06,42.805,6.029,CST-1368DR,5222,7114,14591,0.272,551
2021-09-15T05:56:08,42.805,6.029,CST-1368DR,5221,7114,14592,0.271,551
2021-09-15T05:59:09,42.805,6.029,CST-1368DR,5221,7114,14592,0.271,551
2021-09-15T06:02:11,42.805,6.029,CST-1368DR,5222,7114,14591,0.272,551
2021-09-15T06:05:13,42.805,6.029,CST-1368DR,5221,7114,14592,0.271,551
2021-09-15T06:08:14,42.805,6.029,CST-1368DR,5222,7114,14591,0.272,551
2021-09-15T06:11:16,42.805,6.029,CST-1368DR,5222,7113,14589,0.272,551
2021-09-15T06:14:17,42.805,6.029,CST-1368DR,5222,7114,14590,0.272,551
2021-09-15T06:17:19,42.805,6.029,CST-1368DR,5222,7113,14589,0.272,551
2021-09-15T06:20:20,42.805,6.029,CST-1368DR,5222,7114,14590,0.272,551
2021-09-15T06:23:22,42.805,6.029,CST-1368DR,5222,7114,14591,0.272,551
2021-09-15T06:26:24,42.805,6.029,CST-1368DR,5221,7114,14594,0.271,551
2021-09-15T06:29:25,42.805,6.029,CST-1368DR,5222,7113,14589,0.272,551
2021-09-15T06:32:27,42.805,6.029,CST-1368DR,5222,7114,14590,0.272,551
2021-09-15T06:35:28,42.805,6.029,CST-1368DR,5221,7114,14594,0.271,551
2021-09-15T06:38:30,42.805,6.029,CST-1368DR,5222,7114,14590,0.272,551
2021-09-15T06:41:31,42.805,6.029,CST-1368DR,5222,7114,14591,0.272,551
2021-09-15T06:44:33,42.805,6.029,CST-1368DR,5222,7114,14590,0.272,551
2021-09-15T06:47:35,42.805,6.029,CST-1368DR,5222,7114,14591,0.272,551
2021-09-15T06:50:36,42.805,6.029,CST-1368DR,5222,7113,14589,0.272,551
2021-09-15T07:00:07,42.805,6.029,CST-1368DR,5222,7114,14591,0.272,551
2021-09-15T07:03:08,42.805,6.029,CST-1368DR,5222,7114,14591,0.272,551
2021-09-15T07:06:10,42.805,6.029,CST-1368DR,5222,7114,14590,0.272,551
2021-09-15T07:09:11,42.805,6.029,CST-1368DR,5222,7114,14590,0.272,551
2021-09-15T07:12:13,42.805,6.029,CST-1368DR,5222,7114,14591,0.272,551
2021-09-15T07:15:14,42.805,6.029,CST-1368DR,5222,7113,14589,0.272,551
2021-09-15T07:18:16,42.805,6.029,CST-1368DR,5222,7114,14590,0.272,551
2021-09-15T07:21:18,42.805,6.029,CST-1368DR,5221,7114,14593,0.271,551
2021-09-15T07:24:19,42.805,6.029,CST-1368DR,5221,7114,14592,0.271,551
2021-09-15T07:27:21,42.805,6.029,CST-1368DR,5222,7114,14591,0.272,551
2021-09-15T07:30:22,42.805,6.029,CST-1368DR,5222,7113,14589,0.272,551
2021-09-15T07:33:24,42.805,6.029,CST-1368DR,5222,7114,14590,0.272,550
2021-09-15T07:36:25,42.805,6.029,CST-1368DR,5221,7114,14592,0.271,551
2021-09-15T07:39:27,42.805,6.029,CST-1368DR,5222,7114,14590,0.272,551
2021-09-15T07:42:29,42.805,6.029,CST-1368DR,5222,7113,14589,0.272,551
2021-09-15T07:45:30,42.805,6.029,CST-1368DR,5222,7114,14591,0.272,551
2021-09-15T07:48:32,42.805,6.029,CST-1368DR,5222,7113,14589,0.272,551
2021-09-15T07:51:33,42.805,6.029,CST-1368DR,5221,7113,14591,0.272,551
2021-09-15T07:54:35,42.805,6.029,CST-1368DR,5222,7113,14589,0.272,551
2021-09-15T07:57:36,42.805,6.029,CST-1368DR,5222,7113,14588,0.272,551
2021-09-15T08:00:38,42.805,6.029,CST-1368DR,5222,7114,14590,0.272,551
2021-09-15T08:03:40,42.805,6.029,CST-1368DR,5221,7113,14592,0.271,551
2021-09-15T08:06:41,42.805,6.029,CST-1368DR,5221,7113,14592,0.271,551
2021-09-15T08:09:43,42.805,6.029,CST-1368DR,5221,7113,14591,0.272,551
2021-09-15T08:12:44,42.805,6.029,CST-1368DR,5221,7114,14593,0.271,551
2021-09-15T08:15:46,42.805,6.029,CST-1368DR,5222,7114,14590,0.272,551
2021-09-15T08:18:48,42.805,6.029,CST-1368DR,5221,7113,14591,0.272,551
2021-09-15T08:21:49,42.805,6.029,CST-1368DR,5221,7113,14591,0.272,551
2021-09-15T08:24:51,42.805,6.029,CST-1368DR,5222,7113,14589,0.272,551
2021-09-15T08:27:52,42.805,6.029,CST-1368DR,5221,7113,14591,0.272,551
2021-09-15T08:30:54,42.805,6.029,CST-1368DR,5221,7113,14591,0.272,551
2021-09-15T08:33:55,42.805,6.029,CST-1368DR,5221,7113,14591,0.272,551
2021-09-15T08:36:57,42.805,6.029,CST-1368DR,5221,7113,14591,0.272,551
2021-09-15T08:39:59,42.805,6.029,CST-1368DR,5221,7113,14591,0.272,551
2021-09-15T08:43:00,42.805,6.029,CST-1368DR,5221,7113,14592,0.271,551
2021-09-15T08:46:02,42.805,6.029,CST-1368DR,5221,7114,14592,0.271,551
2021-09-15T08:49:03,42.805,6.029,CST-1368DR,5221,7113,14590,0.272,551
2021-09-15T08:52:05,42.805,6.029,CST-1368DR,5221,7113,14592,0.271,551
2021-09-15T08:55:07,42.805,6.029,CST-1368DR,5221,7113,14591,0.272,551
2021-09-15T08:58:08,42.805,6.029,CST-1368DR,5221,7113,14591,0.272,551
2021-09-15T09:01:10,42.805,6.029,CST-1368DR,5221,7112,14589,0.272,551
2021-09-15T09:04:11,42.805,6.029,CST-1368DR,5221,7113,14591,0.272,551
2021-09-15T09:07:13,42.805,6.029,CST-1368DR,5221,7113,14591,0.272,551
2021-09-15T09:10:14,42.805,6.029,CST-1368DR,5221,7113,14590,0.272,551
2021-09-15T09:13:16,42.805,6.029,CST-1368DR,5221,7113,14591,0.272,551
2021-09-15T09:16:18,42.805,6.029,CST-1368DR,5221,7113,14591,0.272,551
2021-09-15T09:19:19,42.805,6.029,CST-1368DR,5221,7113,14590,0.272,551
2021-09-15T09:22:21,42.805,6.029,CST-1368DR,5221,7113,14592,0.271,551
2021-09-15T09:25:22,42.805,6.029,CST-1368DR,5221,7112,14590,0.272,551
2021-09-15T09:28:24,42.805,6.029,CST-1368DR,5221,7113,14591,0.272,551
2021-09-15T09:31:25,42.805,6.029,CST-1368DR,5221,7113,14592,0.271,551
2021-09-15T09:34:27,42.805,6.029,CST-1368DR,5221,7110,14585,0.273,551
2021-09-15T09:37:29,42.805,6.029,CST-1368DR,5221,7113,14591,0.272,551
2021-09-15T09:40:30,42.805,6.029,CST-1368DR,5221,7113,14591,0.272,551
2021-09-15T09:43:32,42.805,6.029,CST-1368DR,5221,7113,14591,0.272,551
2021-09-15T09:46:33,42.805,6.029,CST-1368DR,5221,7113,14590,0.272,551
2021-09-15T09:49:35,42.805,6.029,CST-1368DR,5221,7113,14591,0.272,551
2021-09-15T09:52:37,42.805,6.029,CST-1368DR,5221,7113,14591,0.272,551
2021-09-15T09:55:38,42.805,6.029,CST-1368DR,5221,7113,14591,0.272,551
2021-09-15T09:58:40,42.805,6.029,CST-1368DR,5221,7112,14589,0.272,551
2021-09-15T10:01:41,42.805,6.029,CST-1368DR,5221,7113,14591,0.272,551
2021-09-15T10:04:43,42.805,6.029,CST-1368DR,5221,7112,14590,0.272,551
2021-09-15T10:07:44,42.805,6.029,CST-1368DR,5221,7113,14590,0.272,551
2021-09-15T10:10:46,42.805,6.029,CST-1368DR,5221,7112,14589,0.272,551
2021-09-15T10:13:48,42.805,6.029,CST-1368DR,5221,7113,14591,0.272,551
2021-09-15T10:16:49,42.805,6.029,CST-1368DR,5221,7113,14590,0.272,551
2021-09-15T10:19:51,42.805,6.029,CST-1368DR,5221,7112,14589,0.272,551
2021-09-15T10:22:52,42.805,6.029,CST-1368DR,5221,7113,14590,0.272,551
2021-09-15T10:25:54,42.805,6.029,CST-1368DR,5221,7113,14591,0.272,551
2021-09-15T10:28:56,42.805,6.029,CST-1368DR,5221,7113,14590,0.272,551
2021-09-15T10:31:57,42.805,6.029,CST-1368DR,5221,7113,14591,0.272,551
2021-09-15T10:34:59,42.805,6.029,CST-1368DR,5221,7112,14590,0.272,551
2021-09-15T10:38:00,42.805,6.029,CST-1368DR,5221,7112,14590,0.272,551
2021-09-15T10:41:02,42.805,6.029,CST-1368DR,5221,7113,14590,0.272,551
2021-09-15T10:44:03,42.805,6.029,CST-1368DR,5221,7112,14590,0.272,551
2021-09-15T10:47:05,42.805,6.029,CST-1368DR,5221,7113,14590,0.272,551
2021-09-15T10:50:07,42.805,6.029,CST-1368DR,5221,7112,14589,0.272,551
2021-09-15T10:53:08,42.805,6.029,CST-1368DR,5221,7112,14589,0.272,551
2021-09-15T10:56:10,42.805,6.029,CST-1368DR,5221,7112,14590,0.272,551
2021-09-15T10:59:11,42.805,6.029,CST-1368DR,5221,7112,14589,0.272,551
2021-09-15T11:02:13,42.805,6.029,CST-1368DR,5221,7112,14590,0.272,551
2021-09-15T11:05:14,42.805,6.029,CST-1368DR,5221,7112,14589,0.272,551
2021-09-15T11:08:16,42.805,6.029,CST-1368DR,5221,7112,14589,0.272,551
2021-09-15T11:11:18,42.805,6.029,CST-1368DR,5221,7112,14590,0.272,551
2021-09-15T11:14:19,42.805,6.029,CST-1368DR,5221,7112,14589,0.272,551
2021-09-15T11:17:21,42.805,6.029,CST-1368DR,5221,7113,14590,0.272,551
2021-09-15T11:20:22,42.805,6.029,CST-1368DR,5221,7112,14589,0.272,551
2021-09-15T11:23:24,42.805,6.029,CST-1368DR,5221,7112,14590,0.272,551
2021-09-15T11:26:26,42.805,6.029,CST-1368DR,5221,7112,14590,0.272,551
2021-09-15T11:29:27,42.805,6.029,CST-1368DR,5221,7112,14589,0.272,551
2021-09-15T11:32:29,42.805,6.029,CST-1368DR,5221,7113,14590,0.272,551
2021-09-15T11:35:30,42.805,6.029,CST-1368DR,5221,7112,14589,0.272,551
2021-09-15T11:38:32,42.805,6.029,CST-1368DR,5221,7112,14589,0.272,551
2021-09-15T11:41:33,42.805,6.029,CST-1368DR,5221,7112,14590,0.272,551
2021-09-15T11:44:35,42.805,6.029,CST-1368DR,5221,7112,14589,0.272,551
2021-09-15T11:47:37,42.805,6.029,CST-1368DR,5221,7112,14589,0.272,551
2021-09-15T11:50:38,42.805,6.029,CST-1368DR,5221,7112,14589,0.272,551
2021-09-15T11:53:40,42.805,6.029,CST-1368DR,5221,7111,14587,0.273,551
2021-09-15T11:56:41,42.805,6.029,CST-1368DR,5221,7112,14588,0.272,551
2021-09-15T11:59:43,42.805,6.029,CST-1368DR,5221,7112,14589,0.272,551
2021-09-15T12:02:45,42.805,6.029,CST-1368DR,5221,7112,14589,0.272,551
2021-09-15T12:05:46,42.805,6.029,CST-1368DR,5221,7112,14589,0.272,551
2021-09-15T12:08:48,42.805,6.029,CST-1368DR,5221,7111,14587,0.273,551
2021-09-15T12:11:49,42.805,6.029,CST-1368DR,5221,7112,14589,0.272,551
2021-09-15T12:14:51,42.805,6.029,CST-1368DR,5221,7111,14587,0.273,551
2021-09-15T12:17:52,42.805,6.029,CST-1368DR,5221,7111,14588,0.272,551
2021-09-15T12:20:54,42.805,6.029,CST-1368DR,5221,7111,14588,0.272,551
2021-09-15T12:23:56,42.805,6.029,CST-1368DR,5221,7112,14589,0.272,551
2021-09-15T12:26:57,42.805,6.029,CST-1368DR,5221,7112,14589,0.272,551
2021-09-15T12:29:59,42.805,6.029,CST-1368DR,5221,7112,14589,0.272,551
2021-09-15T12:33:00,42.805,6.029,CST-1368DR,5221,7111,14588,0.272,551
2021-09-15T12:36:02,42.805,6.029,CST-1368DR,5221,7110,14586,0.273,551
2021-09-15T12:39:03,42.805,6.029,CST-1368DR,5221,7112,14589,0.272,551
2021-09-15T12:42:05,42.805,6.029,CST-1368DR,5221,7112,14589,0.272,551
2021-09-15T12:45:07,42.805,6.029,CST-1368DR,5221,7112,14589,0.272,551
2021-09-15T12:48:08,42.805,6.029,CST-1368DR,5221,7112,14589,0.272,551
2021-09-15T12:51:10,42.805,6.029,CST-1368DR,5221,7112,14588,0.272,551
2021-09-15T12:54:11,42.805,6.029,CST-1368DR,5221,7112,14588,0.272,551
2021-09-15T12:57:13,42.805,6.029,CST-1368DR,5221,7111,14588,0.272,551
2021-09-15T13:00:15,42.805,6.029,CST-1368DR,5221,7111,14587,0.273,551
2021-09-15T13:03:16,42.805,6.029,CST-1368DR,5221,7112,14588,0.272,551
2021-09-15T13:06:18,42.805,6.029,CST-1368DR,5221,7112,14589,0.272,551
2021-09-15T13:09:19,42.805,6.029,CST-1368DR,5221,7112,14589,0.272,551
2021-09-15T13:12:21,42.805,6.029,CST-1368DR,5221,7112,14589,0.272,551
2021-09-15T13:15:22,42.805,6.029,CST-1368DR,5221,7112,14589,0.272,551
2021-09-15T13:18:24,42.805,6.029,CST-1368DR,5221,7112,14589,0.272,551
2021-09-15T13:21:26,42.805,6.029,CST-1368DR,5221,7112,14589,0.272,551
2021-09-15T13:24:27,42.805,6.029,CST-1368DR,5221,7112,14588,0.272,551
2021-09-15T13:27:29,42.805,6.029,CST-1368DR,5221,7112,14588,0.272,551
2021-09-15T13:30:30,42.805,6.029,CST-1368DR,5221,7112,14588,0.272,551
2021-09-15T13:33:32,42.805,6.029,CST-1368DR,5221,7111,14587,0.273,551
2021-09-15T13:36:33,42.805,6.029,CST-1368DR,5221,7111,14588,0.272,551
2021-09-15T13:39:35,42.805,6.029,CST-1368DR,5221,7112,14589,0.272,551
2021-09-15T13:42:37,42.805,6.029,CST-1368DR,5221,7111,14588,0.272,551
2021-09-15T13:45:38,42.805,6.029,CST-1368DR,5221,7111,14587,0.273,551
2021-09-15T13:48:40,42.805,6.029,CST-1368DR,5221,7111,14588,0.272,551
2021-09-15T13:51:41,42.805,6.029,CST-1368DR,5221,7112,14588,0.272,551
2021-09-15T13:54:43,42.805,6.029,CST-1368DR,5221,7111,14587,0.273,551
2021-09-15T13:57:45,42.805,6.029,CST-1368DR,5221,7111,14587,0.273,551
2021-09-15T14:00:46,42.805,6.029,CST-1368DR,5221,7111,14587,0.273,551
2021-09-15T14:03:48,42.805,6.029,CST-1368DR,5221,7112,14588,0.272,551
2021-09-15T14:06:49,42.805,6.029,CST-1368DR,5221,7111,14587,0.273,551
2021-09-15T14:09:51,42.805,6.029,CST-1368DR,5221,7111,14588,0.272,551
2021-09-15T14:12:52,42.805,6.029,CST-1368DR,5221,7111,14587,0.273,551
2021-09-15T14:15:54,42.805,6.029,CST-1368DR,5221,7111,14587,0.273,551
2021-09-15T14:18:56,42.805,6.029,CST-1368DR,5221,7111,14587,0.273,551
2021-09-15T14:21:57,42.805,6.029,CST-1368DR,5221,7111,14588,0.272,551
2021-09-15T14:24:59,42.805,6.029,CST-1368DR,5221,7111,14587,0.273,551
2021-09-15T14:28:00,42.805,6.029,CST-1368DR,5221,7111,14587,0.273,551
2021-09-15T14:31:02,42.805,6.029,CST-1368DR,5221,7110,14585,0.273,551
2021-09-15T14:34:03,42.805,6.029,CST-1368DR,5221,7111,14587,0.273,551
2021-09-15T14:37:05,42.805,6.029,CST-1368DR,5221,7111,14587,0.273,551
2021-09-15T14:40:07,42.805,6.029,CST-1368DR,5221,7111,14588,0.272,551
2021-09-15T14:43:08,42.805,6.029,CST-1368DR,5221,7111,14587,0.273,551
2021-09-15T14:46:10,42.805,6.029,CST-1368DR,5221,7111,14587,0.273,551
2021-09-15T14:49:11,42.805,6.029,CST-1368DR,5220,7111,14590,0.272,551
2021-09-15T14:52:13,42.805,6.029,CST-1368DR,5221,7111,14587,0.273,551
2021-09-15T14:55:15,42.805,6.029,CST-1368DR,5221,7110,14586,0.273,551
2021-09-15T14:58:16,42.805,6.029,CST-1368DR,5221,7111,14587,0.273,551
2021-09-15T15:01:18,42.805,6.029,CST-1368DR,5221,7111,14587,0.273,551
2021-09-15T15:04:19,42.805,6.029,CST-1368DR,5220,7111,14589,0.272,551
2021-09-15T15:07:21,42.805,6.029,CST-1368DR,5221,7111,14587,0.273,551
2021-09-15T15:10:22,42.805,6.029,CST-1368DR,5221,7111,14588,0.272,551
2021-09-15T15:13:24,42.805,6.029,CST-1368DR,5220,7110,14588,0.272,551
2021-09-15T15:16:26,42.805,6.029,CST-1368DR,5221,7111,14587,0.273,551
2021-09-15T15:19:27,42.805,6.029,CST-1368DR,5221,7111,14587,0.273,551
2021-09-15T15:22:29,42.805,6.029,CST-1368DR,5220,7110,14588,0.272,551
2021-09-15T15:25:30,42.805,6.029,CST-1368DR,5220,7110,14588,0.272,551
2021-09-15T15:28:32,42.805,6.029,CST-1368DR,5220,7110,14587,0.273,551
2021-09-15T15:31:34,42.805,6.029,CST-1368DR,5220,7111,14589,0.272,551
2021-09-15T15:34:35,42.805,6.029,CST-1368DR,5220,7110,14588,0.272,550
2021-09-15T15:37:37,42.805,6.029,CST-1368DR,5220,7110,14587,0.273,551
2021-09-15T15:40:38,42.805,6.029,CST-1368DR,5221,7110,14585,0.273,551
2021-09-15T15:43:40,42.805,6.029,CST-1368DR,5221,7110,14586,0.273,551
2021-09-15T15:46:41,42.805,6.029,CST-1368DR,5221,7111,14587,0.273,551
2021-09-15T15:49:43,42.805,6.029,CST-1368DR,5221,7110,14585,0.273,551
2021-09-15T15:52:45,42.805,6.029,CST-1368DR,5221,7110,14586,0.273,551
2021-09-15T15:55:46,42.805,6.029,CST-1368DR,5220,7111,14589,0.272,551
2021-09-15T15:58:48,42.805,6.029,CST-1368DR,5220,7110,14588,0.272,551
2021-09-15T16:01:49,42.805,6.029,CST-1368DR,5220,7110,14588,0.272,551
2021-09-15T16:04:51,42.805,6.029,CST-1368DR,5220,7110,14587,0.273,551
2021-09-15T16:07:53,42.805,6.029,CST-1368DR,5221,7110,14586,0.273,551
2021-09-15T16:10:54,42.805,6.029,CST-1368DR,5220,7110,14588,0.272,551
2021-09-15T16:13:56,42.805,6.029,CST-1368DR,5220,7111,14589,0.272,551
2021-09-15T16:16:57,42.805,6.029,CST-1368DR,5221,7110,14586,0.273,551
2021-09-15T16:19:59,42.805,6.029,CST-1368DR,5220,7111,14589,0.272,551
2021-09-15T16:23:00,42.805,6.029,CST-1368DR,5220,7110,14588,0.272,551
2021-09-15T16:26:02,42.805,6.029,CST-1368DR,5220,7110,14588,0.272,551
2021-09-15T16:29:04,42.805,6.029,CST-1368DR,5220,7110,14588,0.272,551
2021-09-15T16:32:05,42.805,6.029,CST-1368DR,5220,7110,14588,0.272,551
2021-09-15T16:35:07,42.805,6.029,CST-1368DR,5220,7110,14588,0.272,551
2021-09-15T16:38:08,42.805,6.029,CST-1368DR,5220,7110,14588,0.272,551
2021-09-15T16:41:10,42.805,6.029,CST-1368DR,5220,7110,14588,0.272,551
2021-09-15T16:44:11,42.805,6.029,CST-1368DR,5220,7110,14588,0.272,551
2021-09-15T16:47:13,42.805,6.029,CST-1368DR,5220,7110,14588,0.272,551
2021-09-15T16:50:15,42.805,6.029,CST-1368DR,5220,7110,14587,0.273,551
2021-09-15T16:53:16,42.805,6.029,CST-1368DR,5220,7110,14588,0.272,551
2021-09-15T16:56:18,42.805,6.029,CST-1368DR,5220,7110,14588,0.272,551
2021-09-15T16:59:19,42.805,6.029,CST-1368DR,5220,7111,14589,0.272,551